IZ3TCG-13 Weather Reports


Display with metric or nautical units.
time (UTC)temp
F
wind
direction
speed
MPH
gust
MPH
rain 1hr
in
rain 24hr
in
rain mn
in
humidity
%
barometer
mb
20260902093015 86 46 1.0 6.0 0.00 0.00 0.00 49 1013.7
20260902092403 87 54 1.0 4.0 0.00 0.00 0.00 51 1013.7
20260902092213 87 36 2.0 4.0 0.00 0.00 0.00 51 1013.9
20260902091813 83 45 2.0 4.0 0.00 0.00 0.00 54 1013.9
20260902091203 83 45 2.0 4.0 0.00 0.00 0.00 54 1013.8
20260902090803 83 45 2.0 4.0 0.00 0.00 0.00 54 1013.6
20260902090404 83 45 2.0 4.0 0.00 0.00 0.00 54 1013.6
20260902090004 83 45 2.0 4.0 0.00 0.00 0.00 54 1013.9
20260902085603 83 45 2.0 4.0 0.00 0.00 0.00 54 1013.7
20260902085203 83 45 2.0 4.0 0.00 0.00 0.00 54 1014.1
20260902084803 83 45 2.0 4.0 0.00 0.00 0.00 54 1013.7
20260902084403 83 45 2.0 4.0 0.00 0.00 0.00 54 1013.7
20260902084003 83 45 2.0 4.0 0.00 0.00 0.00 54 1013.7
20260902083603 83 45 2.0 4.0 0.00 0.00 0.00 54 1013.7
20260902083203 83 45 2.0 4.0 0.00 0.00 0.00 54 1013.8
20260902082803 83 45 2.0 4.0 0.00 0.00 0.00 54 1013.6
20260902082403 83 45 2.0 4.0 0.00 0.00 0.00 54 1013.5
20260902082003 83 34 2.0 4.0 0.00 0.00 0.00 54 1013.7
20260902081603 83 1 2.0 4.0 0.00 0.00 0.00 54 1013.6
20260902081203 82 340 1.0 4.0 0.00 0.00 0.00 55 1013.3
20260902080803 82 354 2.0 4.0 0.00 0.00 0.00 55 1013.4
20260902080403 82 3 2.0 4.0 0.00 0.00 0.00 56 1013.6
20260902080003 82 5 2.0 6.0 0.00 0.00 0.00 56 1013.6
20260902075604 81 1 2.0 6.0 0.00 0.00 0.00 57 1013.4
20260902075204 82 346 2.0 6.0 0.00 0.00 0.00 56 1013.6
20260902074803 82 324 2.0 6.0 0.00 0.00 0.00 56 1013.4
20260902074403 82 320 2.0 4.0 0.00 0.00 0.00 57 1013.6
20260902074003 82 335 1.0 4.0 0.00 0.00 0.00 56 1013.6
20260902073817 82 334 2.0 4.0 0.00 0.00 0.00 56 1013.2
20260902073203 80 7 2.0 6.0 0.00 0.00 0.00 58 1013.2
20260902072803 81 29 2.0 6.0 0.00 0.00 0.00 58 1013.1
20260902072615 80 19 2.0 6.0 0.00 0.00 0.00 59 1013.3
20260902072003 80 6 2.0 4.0 0.00 0.00 0.00 59 1013.3
20260902071603 81 4 2.0 8.0 0.00 0.00 0.00 58 1013.1
20260902071203 80 350 1.0 8.0 0.00 0.00 0.00 60 1013.6
20260902070803 79 345 2.0 8.0 0.00 0.00 0.00 61 1013.3
20260902070403 79 324 1.0 4.0 0.00 0.00 0.00 63 1013.2
20260902070217 79 329 1.0 4.0 0.00 0.00 0.00 63 1013.1
20260902065603 78 312 1.0 4.0 0.00 0.00 0.00 64 1013.1
20260902065203 77 293 0.0 6.0 0.00 0.00 0.00 66 1013.4
20260902064803 77 290 1.0 6.0 0.00 0.00 0.00 67 1013.1
20260902064403 76 280 2.0 6.0 0.00 0.00 0.00 67 1013.3
20260902064003 77 279 2.0 4.0 0.00 0.00 0.00 69 1013.1
20260902063603 76 276 2.0 4.0 0.00 0.00 0.00 70 1013.2
20260902063203 76 273 0.0 4.0 0.00 0.00 0.00 71 1013.2
20260902062803 75 283 0.0 4.0 0.00 0.00 0.00 72 1013.1
20260902062403 75 282 1.0 4.0 0.00 0.00 0.00 74 1013.0
20260902062003 74 275 1.0 2.0 0.00 0.00 0.00 74 1013.3
20260902061203 72 270 0.0 2.0 0.00 0.00 0.00 79 1013.1
20260902060803 72 0 0.0 0.0 0.00 0.00 0.00 83 1012.8
20260902060613 72 0 0.0 0.0 0.00 0.00 0.00 83 1013.1
20260902060003 71 270 0.0 2.0 0.00 0.00 0.00 84 1012.9
20260902055603 70 270 0.0 2.0 0.00 0.00 0.00 84 1013.0
20260902055203 69 270 1.0 2.0 0.00 0.00 0.00 85 1012.9
20260902054803 69 270 1.0 2.0 0.00 0.00 0.00 85 1012.9
20260902054615 69 270 2.0 2.0 0.00 0.00 0.00 86 1012.8
20260902054214 68 270 2.0 2.0 0.00 0.00 0.00 87 1012.8
20260902053603 67 0 0.0 0.0 0.00 0.00 0.00 90 1013.2
20260902053203 67 0 0.0 0.0 0.00 0.00 0.00 90 1012.8
20260902052803 67 0 0.0 0.0 0.00 0.00 0.00 90 1012.7
20260902052403 67 0 0.0 0.0 0.00 0.00 0.00 91 1012.7
20260902052003 66 0 0.0 0.0 0.00 0.00 0.00 91 1012.9
20260902051603 66 0 0.0 0.0 0.00 0.00 0.00 92 1012.7
20260902051203 66 0 0.0 0.0 0.00 0.00 0.00 92 1012.6
20260902050803 65 0 0.0 0.0 0.00 0.00 0.00 92 1012.6
20260902050403 65 0 0.0 0.0 0.00 0.00 0.00 93 1012.7
20260902050006 65 0 0.0 0.0 0.00 0.00 0.00 93 1012.8
20260902045603 65 0 0.0 0.0 0.00 0.00 0.00 93 1012.8
20260902045417 65 0 0.0 0.0 0.00 0.00 0.00 92 1012.9
20260902045016 65 0 0.0 0.0 0.00 0.00 0.00 92 1012.8
20260902044403 65 0 0.0 0.0 0.00 0.00 0.00 92 1012.9
20260902044003 65 0 0.0 0.0 0.00 0.00 0.00 92 1012.8
20260902043603 65 0 0.0 0.0 0.00 0.00 0.00 91 1012.9
20260902043203 65 0 0.0 0.0 0.00 0.00 0.00 91 1013.0
20260902042803 65 0 0.0 0.0 0.00 0.00 0.00 91 1012.6
20260902042403 65 0 0.0 0.0 0.00 0.00 0.00 91 1012.9
20260902042003 65 0 0.0 0.0 0.00 0.00 0.00 91 1012.7
20260902041603 66 0 0.0 0.0 0.00 0.00 0.00 91 1012.5
20260902041415 66 0 0.0 0.0 0.00 0.00 0.00 91 1013.0
20260902040803 66 0 0.0 0.0 0.00 0.00 0.00 90 1012.8
20260902040614 66 0 0.0 0.0 0.00 0.00 0.00 90 1012.9
20260902040214 66 270 0.0 2.0 0.00 0.00 0.00 89 1013.0
20260902035813 67 270 0.0 2.0 0.00 0.00 0.00 89 1012.6
20260902035203 67 0 0.0 0.0 0.00 0.00 0.00 89 1012.7
20260902035017 67 0 0.0 0.0 0.00 0.00 0.00 88 1012.8
20260902034403 67 0 0.0 0.0 0.00 0.00 0.00 89 1012.7
20260902034003 67 0 0.0 0.0 0.00 0.00 0.00 89 1012.6
20260902033815 67 0 0.0 0.0 0.00 0.00 0.00 89 1012.6
20260902033203 67 270 0.0 2.0 0.00 0.00 0.00 89 1012.7
20260902032803 67 270 0.0 2.0 0.00 0.00 0.00 88 1012.7
20260902032613 67 270 0.0 2.0 0.00 0.00 0.00 88 1012.8
20260902032003 67 0 0.0 0.0 0.00 0.00 0.00 88 1012.4
20260902031603 67 0 0.0 0.0 0.00 0.00 0.00 88 1012.4
20260902031416 67 0 0.0 0.0 0.00 0.00 0.00 88 1012.9
20260902031016 67 0 0.0 0.0 0.00 0.00 0.00 89 1012.7
20260902030615 67 0 0.0 0.0 0.00 0.00 0.00 89 1012.7
20260902030004 66 0 0.0 0.0 0.00 0.00 0.00 91 1012.5
20260902025603 66 0 0.0 0.0 0.00 0.00 0.00 91 1012.6
20260902025203 66 0 0.0 0.0 0.00 0.00 0.00 91 1012.5
20260902024803 66 0 0.0 0.0 0.00 0.00 0.00 90 1012.6
20260902024403 66 0 0.0 0.0 0.00 0.00 0.00 90 1012.6
20260902024216 66 0 0.0 0.0 0.00 0.00 0.00 90 1012.7
20260902023603 67 0 0.0 0.0 0.00 0.00 0.00 89 1012.6
20260902023203 67 270 0.0 2.0 0.00 0.00 0.00 89 1012.6
20260902022803 67 270 0.0 2.0 0.00 0.00 0.00 88 1012.8
20260902022403 68 270 0.0 2.0 0.00 0.00 0.00 88 1012.6
20260902022003 67 270 1.0 2.0 0.00 0.00 0.00 88 1012.7
20260902021604 67 270 1.0 2.0 0.00 0.00 0.00 90 1012.8
20260902021203 66 0 0.0 0.0 0.00 0.00 0.00 90 1012.8
20260902020803 66 0 0.0 0.0 0.00 0.00 0.00 90 1012.7
20260902020403 66 0 0.0 0.0 0.00 0.00 0.00 90 1012.5
20260902020215 66 0 0.0 0.0 0.00 0.00 0.00 90 1012.6
20260902015603 67 0 0.0 0.0 0.00 0.00 0.00 89 1012.7
20260902015203 67 0 0.0 0.0 0.00 0.00 0.00 88 1012.4
20260902014803 68 0 0.0 0.0 0.00 0.00 0.00 87 1012.7
20260902014617 68 0 0.0 0.0 0.00 0.00 0.00 87 1012.6
20260902014003 68 0 0.0 0.0 0.00 0.00 0.00 86 1012.5
20260902013603 68 0 0.0 0.0 0.00 0.00 0.00 87 1012.7
20260902013203 67 0 0.0 0.0 0.00 0.00 0.00 88 1012.3
20260902012803 68 0 0.0 0.0 0.00 0.00 0.00 88 1012.4
20260902012403 68 0 0.0 0.0 0.00 0.00 0.00 87 1012.6
20260902012003 68 0 0.0 0.0 0.00 0.00 0.00 86 1012.3
20260902011603 69 0 0.0 0.0 0.00 0.00 0.00 85 1012.6
20260902011203 70 270 0.0 2.0 0.00 0.00 0.00 84 1012.5
20260902011017 70 270 0.0 2.0 0.00 0.00 0.00 83 1012.7
20260902010403 71 270 0.0 2.0 0.00 0.00 0.00 81 1012.6
20260902010004 70 270 0.0 2.0 0.00 0.00 0.00 81 1012.7
20260902005603 70 270 0.0 2.0 0.00 0.00 0.00 82 1012.8
20260902005203 69 0 0.0 0.0 0.00 0.00 0.00 83 1012.9
20260902004803 70 270 0.0 2.0 0.00 0.00 0.00 83 1012.6
20260902004403 71 281 0.0 2.0 0.00 0.00 0.00 82 1013.1
20260902004003 71 281 0.0 2.0 0.00 0.00 0.00 80 1013.0
20260902003603 71 0 0.0 0.0 0.00 0.00 0.00 81 1012.9
20260902003203 71 0 0.0 0.0 0.00 0.00 0.00 81 1012.8
20260902002803 70 0 0.0 0.0 0.00 0.00 0.00 81 1013.0
20260902002403 70 0 0.0 0.0 0.00 0.00 0.00 81 1013.0
20260902002214 70 0 0.0 0.0 0.00 0.00 0.00 81 1013.1
20260902001603 70 0 0.0 0.0 0.00 0.00 0.00 82 1012.9
20260902001203 70 0 0.0 0.0 0.00 0.00 0.00 82 1012.8
20260902000803 69 0 0.0 0.0 0.00 0.00 0.00 83 1012.6
20260902000403 69 0 0.0 0.0 0.00 0.00 0.00 83 1013.0
20260902000004 69 0 0.0 0.0 0.00 0.00 0.00 83 1012.8
20260901235603 69 0 0.0 0.0 0.00 0.00 0.00 85 1012.9
20260901235203 68 0 0.0 0.0 0.00 0.00 0.00 87 1013.0
20260901234803 68 0 0.0 0.0 0.00 0.00 0.00 87 1012.8
20260901234403 68 0 0.0 0.0 0.00 0.00 0.00 87 1012.8
20260901234003 68 0 0.0 0.0 0.00 0.00 0.00 87 1012.9
20260901233817 68 0 0.0 0.0 0.00 0.00 0.00 87 1012.7
20260901233203 69 0 0.0 0.0 0.00 0.00 0.00 86 1012.7
20260901232803 69 0 0.0 0.0 0.00 0.00 0.00 86 1012.9
20260901232403 69 0 0.0 0.0 0.00 0.00 0.00 85 1012.5
20260901232003 69 0 0.0 0.0 0.00 0.00 0.00 84 1012.8
20260901231604 69 0 0.0 0.0 0.00 0.00 0.00 84 1012.8
20260901231203 70 0 0.0 0.0 0.00 0.00 0.00 84 1012.4
20260901230803 70 0 0.0 0.0 0.00 0.00 0.00 83 1013.0
20260901230403 70 0 0.0 0.0 0.00 0.00 0.00 81 1012.7
20260901230004 70 0 0.0 0.0 0.00 0.00 0.00 80 1012.8
20260901225603 70 0 0.0 0.0 0.00 0.00 0.00 79 1012.6
20260901225204 70 0 0.0 0.0 0.00 0.00 0.00 80 1012.6
20260901224803 71 0 0.0 0.0 0.00 0.00 0.00 80 1012.5
20260901224614 71 0 0.0 0.0 0.00 0.00 0.00 79 1012.7
20260901224003 71 0 0.0 0.0 0.00 0.00 0.00 78 1012.6
20260901223603 71 0 0.0 0.0 0.00 0.00 0.00 77 1012.8
20260901223203 71 0 0.0 0.0 0.00 0.00 0.00 77 1012.7
20260901222803 71 0 0.0 0.0 0.00 0.00 0.00 77 1012.7
20260901222403 71 0 0.0 0.0 0.00 0.00 0.00 78 1012.8
20260901222003 71 0 0.0 0.0 0.00 0.00 0.00 78 1012.8
20260901221815 70 0 0.0 0.0 0.00 0.00 0.00 79 1012.7
20260901221203 69 0 0.0 0.0 0.00 0.00 0.00 82 1012.7
20260901220803 70 0 0.0 0.0 0.00 0.00 0.00 82 1012.9
20260901220403 70 0 0.0 0.0 0.00 0.00 0.00 83 1013.0
20260901220006 70 0 0.0 0.0 0.00 0.00 0.00 82 1012.9
20260901215603 70 0 0.0 0.0 0.00 0.00 0.00 82 1012.8
20260901215203 71 0 0.0 0.0 0.00 0.00 0.00 81 1012.6
20260901214803 71 0 0.0 0.0 0.00 0.00 0.00 81 1012.8
20260901214403 70 0 0.0 0.0 0.00 0.00 0.00 80 1012.7
20260901214003 70 0 0.0 0.0 0.00 0.00 0.00 81 1012.7
20260901213603 70 0 0.0 0.0 0.00 0.00 0.00 81 1012.7
20260901213203 71 0 0.0 0.0 0.00 0.00 0.00 81 1012.7
20260901212803 71 0 0.0 0.0 0.00 0.00 0.00 80 1012.7
20260901212403 71 0 0.0 0.0 0.00 0.00 0.00 80 1012.8
20260901212216 71 0 0.0 0.0 0.00 0.00 0.00 80 1012.6
20260901211603 71 0 0.0 0.0 0.00 0.00 0.00 79 1012.6
20260901211415 71 0 0.0 0.0 0.00 0.00 0.00 80 1012.6
20260901210803 71 0 0.0 0.0 0.00 0.00 0.00 79 1012.7
20260901210403 71 0 0.0 0.0 0.00 0.00 0.00 79 1012.6
20260901210213 71 0 0.0 0.0 0.00 0.00 0.00 79 1012.5
20260901205603 72 0 0.0 0.0 0.00 0.00 0.00 79 1012.4
20260901205203 72 0 0.0 0.0 0.00 0.00 0.00 77 1012.6
20260901204803 72 0 0.0 0.0 0.00 0.00 0.00 76 1012.6
20260901204403 72 0 0.0 0.0 0.00 0.00 0.00 77 1012.6
20260901204003 72 0 0.0 0.0 0.00 0.00 0.00 75 1012.6
20260901203814 72 0 0.0 0.0 0.00 0.00 0.00 75 1012.5
20260901203203 72 0 0.0 0.0 0.00 0.00 0.00 76 1012.5
20260901202803 72 0 0.0 0.0 0.00 0.00 0.00 76 1012.5
20260901202403 72 0 0.0 0.0 0.00 0.00 0.00 76 1012.2
20260901202217 72 0 0.0 0.0 0.00 0.00 0.00 76 1012.6
20260901201603 72 0 0.0 0.0 0.00 0.00 0.00 76 1012.4
20260901201415 72 0 0.0 0.0 0.00 0.00 0.00 76 1012.3
20260901200803 73 0 0.0 0.0 0.00 0.00 0.00 75 1012.5
20260901200614 73 0 0.0 0.0 0.00 0.00 0.00 74 1012.5
20260901200003 74 0 0.0 0.0 0.00 0.00 0.00 73 1012.2
20260901195603 72 0 0.0 0.0 0.00 0.00 0.00 74 1012.0
20260901195203 72 0 0.0 0.0 0.00 0.00 0.00 77 1012.3
20260901194803 72 0 0.0 0.0 0.00 0.00 0.00 75 1012.1
20260901194403 72 0 0.0 0.0 0.00 0.00 0.00 75 1012.3
20260901194003 73 0 0.0 0.0 0.00 0.00 0.00 75 1012.4
20260901193816 73 0 0.0 0.0 0.00 0.00 0.00 75 1012.2
20260901193203 74 0 0.0 0.0 0.00 0.00 0.00 73 1012.2
20260901192803 74 0 0.0 0.0 0.00 0.00 0.00 73 1012.1
20260901192403 74 0 0.0 0.0 0.00 0.00 0.00 72 1012.4
20260901192003 73 0 0.0 0.0 0.00 0.00 0.00 73 1012.2
20260901191603 74 0 0.0 0.0 0.00 0.00 0.00 73 1011.9
20260901191203 74 0 0.0 0.0 0.00 0.00 0.00 72 1012.1
20260901190803 74 0 0.0 0.0 0.00 0.00 0.00 71 1012.2
20260901190403 74 0 0.0 0.0 0.00 0.00 0.00 72 1012.2
20260901190003 74 0 0.0 0.0 0.00 0.00 0.00 72 1011.9
20260901185814 74 0 0.0 0.0 0.00 0.00 0.00 71 1012.0
20260901185203 75 0 0.0 0.0 0.00 0.00 0.00 67 1011.7
20260901184803 76 0 0.0 0.0 0.00 0.00 0.00 66 1011.8
20260901184403 76 0 0.0 0.0 0.00 0.00 0.00 66 1011.8
20260901184003 76 0 0.0 0.0 0.00 0.00 0.00 65 1012.0
20260901183603 76 0 0.0 0.0 0.00 0.00 0.00 66 1011.7
20260901183203 76 0 0.0 0.0 0.00 0.00 0.00 64 1012.0
20260901182803 76 0 0.0 0.0 0.00 0.00 0.00 65 1011.7
20260901182404 76 0 0.0 0.0 0.00 0.00 0.00 64 1011.8
20260901182004 76 0 0.0 0.0 0.00 0.00 0.00 63 1012.1
20260901181603 77 0 0.0 0.0 0.00 0.00 0.00 63 1012.0
20260901181203 77 0 0.0 0.0 0.00 0.00 0.00 63 1011.8
20260901180803 78 0 0.0 0.0 0.00 0.00 0.00 61 1011.9
20260901180403 78 0 0.0 0.0 0.00 0.00 0.00 61 1011.8
20260901180215 78 0 0.0 0.0 0.00 0.00 0.00 61 1011.7
20260901175603 79 0 0.0 0.0 0.00 0.00 0.00 59 1011.6
20260901175203 79 90 0.0 2.0 0.00 0.00 0.00 58 1011.7
20260901175013 79 90 0.0 2.0 0.00 0.00 0.00 58 1011.6
20260901174617 79 90 0.0 4.0 0.00 0.00 0.00 58 1011.7
20260901174003 80 90 0.0 4.0 0.00 0.00 0.00 57 1011.7
20260901173603 80 90 2.0 2.0 0.00 0.00 0.00 56 1011.4
20260901173203 81 90 1.0 2.0 0.00 0.00 0.00 55 1011.7
20260901172803 81 90 2.0 2.0 0.00 0.00 0.00 54 1011.5
20260901172403 81 90 1.0 2.0 0.00 0.00 0.00 54 1011.5
20260901172003 81 90 0.0 2.0 0.00 0.00 0.00 56 1011.4
20260901171604 82 90 2.0 2.0 0.00 0.00 0.00 54 1011.6
20260901171203 82 90 1.0 4.0 0.00 0.00 0.00 53 1011.6
20260901170803 82 90 2.0 4.0 0.00 0.00 0.00 53 1011.6
20260901170403 83 88 1.0 4.0 0.00 0.00 0.00 52 1011.7
20260901170004 83 83 2.0 4.0 0.00 0.00 0.00 52 1011.8
20260901165603 83 74 1.0 4.0 0.00 0.00 0.00 52 1011.8
20260901165203 83 78 1.0 4.0 0.00 0.00 0.00 52 1011.6
20260901164803 84 89 2.0 4.0 0.00 0.00 0.00 51 1011.5
20260901164403 84 85 2.0 4.0 0.00 0.00 0.00 50 1011.6
20260901164217 84 86 2.0 4.0 0.00 0.00 0.00 50 1011.7
20260901163603 84 72 2.0 4.0 0.00 0.00 0.00 48 1011.7
20260901163203 85 75 2.0 4.0 0.00 0.00 0.00 50 1011.8
20260901162803 85 76 2.0 4.0 0.00 0.00 0.00 47 1011.5
20260901162403 85 92 2.0 6.0 0.00 0.00 0.00 48 1011.9
20260901162003 85 89 1.0 6.0 0.00 0.00 0.00 48 1011.6
20260901161603 85 86 2.0 4.0 0.00 0.00 0.00 46 1011.8
20260901161203 85 77 3.0 4.0 0.00 0.00 0.00 49 1011.7
20260901160804 86 75 2.0 4.0 0.00 0.00 0.00 48 1012.0
20260901160403 86 77 2.0 4.0 0.00 0.00 0.00 48 1012.0
20260901160004 86 78 2.0 4.0 0.00 0.00 0.00 48 1012.0
20260901155603 86 80 3.0 4.0 0.00 0.00 0.00 47 1011.7
20260901155203 86 81 2.0 6.0 0.00 0.00 0.00 46 1012.0
20260901154803 86 88 1.0 7.0 0.00 0.00 0.00 51 1011.7
20260901154403 85 86 2.0 7.0 0.00 0.00 0.00 48 1011.8
20260901154003 86 96 2.0 7.0 0.00 0.00 0.00 47 1011.9
20260901153603 86 95 2.0 6.0 0.00 0.00 0.00 45 1011.9
20260901153203 86 91 4.0 6.0 0.00 0.00 0.00 47 1011.9
20260901152803 86 93 2.0 6.0 0.00 0.00 0.00 47 1011.9
20260901152403 86 95 2.0 6.0 0.00 0.00 0.00 48 1011.9
20260901152003 87 83 2.0 4.0 0.00 0.00 0.00 46 1012.1
20260901151603 87 73 2.0 4.0 0.00 0.00 0.00 46 1012.1
20260901151203 87 76 2.0 6.0 0.00 0.00 0.00 46 1012.0
20260901151013 87 87 2.0 9.0 0.00 0.00 0.00 46 1012.0
20260901150403 86 86 3.0 9.0 0.00 0.00 0.00 46 1012.0
20260901150004 86 84 3.0 6.0 0.00 0.00 0.00 47 1012.0
20260901145604 87 97 3.0 8.0 0.00 0.00 0.00 47 1012.1
20260901145203 86 100 3.0 8.0 0.00 0.00 0.00 47 1012.1
20260901144803 86 98 4.0 11.0 0.00 0.00 0.00 48 1012.0
20260901144614 86 94 2.0 11.0 0.00 0.00 0.00 50 1012.2
20260901144003 87 84 7.0 11.0 0.00 0.00 0.00 48 1012.3
20260901143603 86 85 2.0 9.0 0.00 0.00 0.00 48 1012.3
20260901143203 86 89 4.0 8.0 0.00 0.00 0.00 48 1012.3
20260901143017 86 92 2.0 8.0 0.00 0.00 0.00 49 1012.3
20260901142616 87 78 4.0 8.0 0.00 0.00 0.00 49 1012.4
20260901142003 88 68 2.0 7.0 0.00 0.00 0.00 46 1012.4
20260901141603 87 86 3.0 7.0 0.00 0.00 0.00 48 1012.3
20260901141203 87 95 2.0 7.0 0.00 0.00 0.00 47 1012.4
20260901140803 87 85 4.0 8.0 0.00 0.00 0.00 48 1012.2
20260901140613 87 85 1.0 8.0 0.00 0.00 0.00 49 1012.4
20260901140212 87 88 2.0 8.0 0.00 0.00 0.00 48 1012.3
20260901135603 86 92 4.0 11.0 0.00 0.00 0.00 52 1012.6
20260901135204 86 83 4.0 11.0 0.00 0.00 0.00 52 1012.3
20260901134803 86 77 3.0 11.0 0.00 0.00 0.00 52 1012.6
20260901134403 87 84 4.0 8.0 0.00 0.00 0.00 53 1012.3
20260901134003 87 78 3.0 8.0 0.00 0.00 0.00 50 1012.3
20260901133603 87 84 4.0 8.0 0.00 0.00 0.00 51 1012.4
20260901133413 87 91 4.0 9.0 0.00 0.00 0.00 50 1012.5
20260901133018 87 93 4.0 9.0 0.00 0.00 0.00 51 1012.5
20260901132617 87 96 3.0 11.0 0.00 0.00 0.00 52 1012.5
20260901132216 86 90 2.0 11.0 0.00 0.00 0.00 51 1012.7
20260901131603 87 77 4.0 8.0 0.00 0.00 0.00 52 1012.8
20260901131203 87 86 2.0 8.0 0.00 0.00 0.00 52 1012.6
20260901130803 87 86 3.0 11.0 0.00 0.00 0.00 54 1012.5
20260901130613 87 84 4.0 11.0 0.00 0.00 0.00 53 1012.6
20260901130003 87 60 2.0 11.0 0.00 0.00 0.00 55 1012.8
20260901125603 87 71 5.0 11.0 0.00 0.00 0.00 54 1012.8
20260901125417 87 64 3.0 11.0 0.00 0.00 0.00 52 1012.7
20260901125016 86 98 2.0 11.0 0.00 0.00 0.00 55 1012.6
20260901124403 86 102 5.0 11.0 0.00 0.00 0.00 54 1012.9
20260901124004 87 80 4.0 9.0 0.00 0.00 0.00 52 1012.8
20260901123603 87 86 2.0 9.0 0.00 0.00 0.00 52 1012.8
20260901123203 87 87 3.0 9.0 0.00 0.00 0.00 53 1012.8
20260901122803 87 66 3.0 11.0 0.00 0.00 0.00 55 1012.9
20260901122403 87 64 2.0 11.0 0.00 0.00 0.00 52 1013.2
20260901122217 87 67 4.0 11.0 0.00 0.00 0.00 52 1012.7
20260901121603 86 91 4.0 11.0 0.00 0.00 0.00 55 1013.0
20260901121203 86 92 1.0 9.0 0.00 0.00 0.00 52 1013.2
20260901120803 86 81 3.0 9.0 0.00 0.00 0.00 51 1012.9
20260901120403 87 86 7.0 9.0 0.00 0.00 0.00 53 1013.0
20260901120003 87 82 3.0 9.0 0.00 0.00 0.00 53 1013.0
20260901115603 86 81 5.0 9.0 0.00 0.00 0.00 53 1013.0
20260901115203 86 70 4.0 8.0 0.00 0.00 0.00 53 1013.0
20260901114803 87 68 3.0 8.0 0.00 0.00 0.00 51 1013.2
20260901114403 87 70 1.0 11.0 0.00 0.00 0.00 53 1012.9
20260901114003 86 86 3.0 11.0 0.00 0.00 0.00 53 1013.1
20260901113604 86 91 4.0 11.0 0.00 0.00 0.00 56 1013.0
20260901113203 85 97 4.0 11.0 0.00 0.00 0.00 57 1013.0
20260901112803 86 91 2.0 11.0 0.00 0.00 0.00 54 1013.1
20260901112613 86 90 4.0 11.0 0.00 0.00 0.00 55 1013.1
20260901112003 85 84 6.0 11.0 0.00 0.00 0.00 58 1013.1
20260901111603 87 83 4.0 11.0 0.00 0.00 0.00 55 1013.1
20260901111204 86 66 3.0 11.0 0.00 0.00 0.00 57 1013.2
20260901110803 87 58 4.0 11.0 0.00 0.00 0.00 58 1013.1
20260901110615 87 60 4.0 11.0 0.00 0.00 0.00 58 1013.2
20260901110214 86 82 3.0 11.0 0.00 0.00 0.00 60 1013.0
20260901105603 85 93 4.0 11.0 0.00 0.00 0.00 62 1013.3
20260901105413 85 97 4.0 11.0 0.00 0.00 0.00 62 1013.2
20260901104803 86 93 2.0 11.0 0.00 0.00 0.00 61 1013.1
20260901104403 86 76 5.0 8.0 0.00 0.00 0.00 62 1013.1
20260901104003 86 34 4.0 8.0 0.00 0.00 0.00 62 1013.0
20260901103603 86 13 2.0 9.0 0.00 0.00 0.00 64 1013.3
20260901103203 85 24 4.0 9.0 0.00 0.00 0.00 62 1013.3
20260901102803 86 40 4.0 9.0 0.00 0.00 0.00 62 1013.2
20260901102403 86 58 3.0 11.0 0.00 0.00 0.00 63 1013.1
20260901102003 85 66 2.0 11.0 0.00 0.00 0.00 63 1013.2
20260901101603 85 66 4.0 11.0 0.00 0.00 0.00 65 1013.2
20260901101203 85 54 2.0 11.0 0.00 0.00 0.00 64 1013.3
20260901100803 85 49 7.0 11.0 0.00 0.00 0.00 64 1013.1
20260901100403 86 21 3.0 9.0 0.00 0.00 0.00 63 1013.2
20260901095603 86 48 4.0 9.0 0.00 0.00 0.00 65 1017.0
20260901095415 86 40 4.0 9.0 0.00 0.00 0.00 64 1017.2
20260901094803 85 22 4.0 9.0 0.00 0.00 0.00 65 1017.1
20260901094403 86 34 4.0 7.0 0.00 0.00 0.00 64 1017.3
20260901094003 86 39 2.0 6.0 0.00 0.00 0.00 64 1017.0
20260901093603 86 31 1.0 6.0 0.00 0.00 0.00 63 1017.1
20260901093417 86 39 2.0 6.0 0.00 0.00 0.00 64 1016.8